This is the latest recevied weather packets stored in our database for station/object KE4EST. If no packets are shown the sender has not sent any weather packets the latest 10 day(s).
| Time | Temp. | Humidity | Pressure | Rain* | Wind** | Luminosity | Snow |
|---|---|---|---|---|---|---|---|
| 1777853301 | 14.44° C | 47% | 1017.2 hPa | 0 mm | - | 5 W/m² | - |
| 1777852998 | 15° C | 46% | 1017.2 hPa | 0 mm | - | 7 W/m² | - |
| 1777852696 | 15° C | 45% | 1017.2 hPa | 0 mm | - | 8 W/m² | - |
| 1777852394 | 15° C | 44% | 1017.1 hPa | 0 mm | - | 9 W/m² | - |
| 1777852091 | 15.56° C | 43% | 1017.2 hPa | 0 mm | - | 10 W/m² | - |
| 1777851788 | 15.56° C | 41% | 1017.2 hPa | 0 mm | - | 12 W/m² | - |
| 1777851486 | 15.56° C | 43% | 1017 hPa | 0 mm | - | 13 W/m² | - |
| 1777851181 | 15.56° C | 41% | 1017.2 hPa | 0 mm | - | 14 W/m² | - |
| 1777850878 | 15.56° C | 40% | 1017.2 hPa | 0 mm | - | 15 W/m² | - |
| 1777850576 | 15.56° C | 40% | 1017.2 hPa | 0 mm | - | 16 W/m² | - |
| 1777850274 | 15.56° C | 40% | 1017.2 hPa | 0 mm | - | 16 W/m² | - |
| 1777849971 | 16.11° C | 40% | 1017.3 hPa | 0 mm | - | 20 W/m² | - |
| 1777849666 | 16.11° C | 39% | 1017.2 hPa | 0 mm | - | 18 W/m² | - |
| 1777849364 | 16.11° C | 39% | 1017.5 hPa | 0 mm | - | 19 W/m² | - |
| 1777849062 | 16.11° C | 38% | 1017.4 hPa | 0 mm | - | 20 W/m² | - |
| 1777848762 | 16.67° C | 38% | 1017.6 hPa | 0 mm | - | 20 W/m² | - |
| 1777848458 | 16.67° C | 38% | 1017.5 hPa | 0 mm | - | 34 W/m² | - |
| 1777848156 | 16.67° C | 39% | 1017.3 hPa | 0 mm | - | 24 W/m² | - |
| 1777847854 | 16.67° C | 36% | 1017.2 hPa | 0 mm | - | 24 W/m² | - |
| 1777847551 | 16.67° C | 36% | 1017.3 hPa | 0 mm | - | 25 W/m² | - |
| 1777847247 | 16.67° C | 35% | 1017.4 hPa | 0 mm | - | 24 W/m² | - |
| 1777846945 | 17.22° C | 35% | 1017.3 hPa | 0 mm | - | 27 W/m² | - |
| 1777846643 | 17.22° C | 35% | 1017.2 hPa | 0 mm | - | 46 W/m² | - |
| 1777846341 | 17.78° C | 35% | 1017.3 hPa | 0 mm | - | 230 W/m² | - |
| 1777846037 | 17.78° C | 39% | 1017.2 hPa | 0 mm | - | 245 W/m² | - |
* Rain latest hour (hover to see other rain measurements)
** Current wind speed in m/s (hover to see current wind gust speed)